DMSP 5D-2 F13 DEB, 42297

Orbit data source: Space-Track

DMSP 5D-2 F13 DEB, 42297 is space debris in SSO originally from a launch on Fri, 24 Mar 1995 UTC launched from the Air Force Western Test Range (AFWTR). Debris objects in space refer to the collection of defunct objects orbiting the Earth. Examples of debris include non-operational satellites, rocket bodies, and fragments generated from explosions, collisions, or faulty payload assembly.

Loading next visibility...
Identifier
42297, 1995-015HP
Orbit
SSO
Country
Flag of USUS
Related business
Manufacturer
Unknown
Mission
Spacecraft
Bus & Motor
Unknown
Mass
Unknown
Launch date (UTC)
1995-03-24 (31 years ago)
Launch vehicle
Unknown
Launch site
Air Force Western Test Range (AFWTR)
Object type
Payload
Rocket body
Debris
Shape & HBR
Unknown shape, 0.1 m
Radar Cross Section
Small (<0.1 m²)

Expand to show TLE details & history
Last TLE update: 6 days ago

TLE from 6 days ago
0 DMSP 5D-2 F13 DEB
1 42297U 95015HP  26167.27523058  .00007124  00000-0  19943-2 0  9990
2 42297  98.8564 174.1478 0023960 308.4852  51.4189 14.46245985555717
Epoch: 2026-06-16T06:36Z
TLE epoch observation values (Epoch: 2026-06-16T06:36:19.922Z)
Latitude
-0.00002°
Longitude
170.51519°
Altitude
730.272 km
Speed
7.496 km/s
True Right ascension
11h 36m 35s
True Declination
0° 00' 00"
Sunlit
Object was in daylight at epoch
Visualization orbit readout
Latitude
Unknown
Longitude
Unknown
Altitude
Unknown
Speed
Unknown
Apparent Right ascension
Unknown
Apparent Declination
Unknown
Sunlit
N/A
Visualization observer readout
Local Sidereal Time
21:38:24
Azimuth
Unknown
Elevation
Unknown
Doppler factor
Unknown
Orbital elements
Apogee altitude
752.11 km
Perigee altitude
718.024 km
Semi-major axis
7,113.204 km
Eccentricity
0.0024
Inclination
98.8564°
RAAN
174.1478°
Arg. of periapsis
308.4852°
True anomaly
51.63393°
Mean anomaly
51.4189°
Eccentric anomaly
51.52638°
Mean motion
3.61781 °/min
Orbital period
99.51 mins
BSTAR
0.0019943

Documentation

Showing up to 5 results
|